TimeCST,TemperatureF,Dew PointF,Humidity,Sea Level PressureIn,VisibilityMPH,Wind Direction,Wind SpeedMPH,Gust SpeedMPH,PrecipitationIn,Events,Conditions,WindDirDegrees,DateUTC
12:15 AM,15.8,10.4,79,30.22,10.0,NE,6.9,-,N/A,,Clear,50,2014-03-05 06:15:00
12:35 AM,15.8,10.4,79,30.23,10.0,East,4.6,-,N/A,,Clear,80,2014-03-05 06:35:00
12:55 AM,15.8,10.4,79,30.24,10.0,Calm,Calm,-,N/A,,Clear,0,2014-03-05 06:55:00
1:15 AM,15.8,10.4,79,30.24,10.0,NNE,5.8,-,N/A,,Clear,20,2014-03-05 07:15:00
1:35 AM,14.0,8.6,79,30.24,10.0,NNE,5.8,-,N/A,,Scattered Clouds,30,2014-03-05 07:35:00
1:55 AM,14.0,8.6,79,30.24,10.0,NE,3.5,-,N/A,,Scattered Clouds,40,2014-03-05 07:55:00
2:15 AM,17.6,10.4,73,30.24,10.0,NE,4.6,-,N/A,,Mostly Cloudy,40,2014-03-05 08:15:00
2:35 AM,15.8,10.4,79,30.24,10.0,NNE,3.5,-,N/A,,Scattered Clouds,30,2014-03-05 08:35:00
2:55 AM,15.8,10.4,79,30.25,10.0,NNE,4.6,-,N/A,,Scattered Clouds,30,2014-03-05 08:55:00
3:15 AM,17.6,8.6,68,30.25,10.0,NNE,6.9,-,N/A,,Scattered Clouds,30,2014-03-05 09:15:00
3:35 AM,15.8,8.6,73,30.26,10.0,NNE,5.8,-,N/A,,Scattered Clouds,30,2014-03-05 09:35:00
3:55 AM,17.6,10.4,73,30.27,10.0,NNE,6.9,-,N/A,,Scattered Clouds,20,2014-03-05 09:55:00
4:15 AM,17.6,8.6,68,30.28,10.0,North,5.8,-,N/A,,Scattered Clouds,10,2014-03-05 10:15:00
4:35 AM,17.6,10.4,73,30.29,10.0,NNE,5.8,-,N/A,,Scattered Clouds,20,2014-03-05 10:35:00
4:55 AM,17.6,10.4,73,30.29,10.0,NE,6.9,-,N/A,,Mostly Cloudy,40,2014-03-05 10:55:00
5:15 AM,19.4,10.4,68,30.29,10.0,NE,6.9,-,N/A,,Overcast,40,2014-03-05 11:15:00
5:35 AM,19.4,10.4,68,30.29,10.0,NE,8.1,-,N/A,,Overcast,50,2014-03-05 11:35:00
5:55 AM,19.4,12.2,74,30.30,10.0,NE,8.1,-,N/A,,Overcast,40,2014-03-05 11:55:00
6:15 AM,19.4,12.2,74,30.31,10.0,NNE,9.2,-,N/A,,Overcast,30,2014-03-05 12:15:00
6:35 AM,19.4,12.2,74,30.32,10.0,NE,8.1,-,N/A,,Overcast,40,2014-03-05 12:35:00
6:55 AM,19.4,12.2,74,30.32,10.0,NE,10.4,-,N/A,,Overcast,50,2014-03-05 12:55:00
7:15 AM,21.2,12.2,68,30.34,10.0,NE,11.5,-,N/A,,Mostly Cloudy,40,2014-03-05 13:15:00
7:35 AM,21.2,12.2,68,30.35,10.0,NE,11.5,-,N/A,,Scattered Clouds,50,2014-03-05 13:35:00
7:55 AM,21.2,14.0,74,30.35,10.0,NE,12.7,-,N/A,,Mostly Cloudy,40,2014-03-05 13:55:00
8:15 AM,21.2,14.0,74,30.36,10.0,NE,10.4,-,N/A,Snow,Light Snow,40,2014-03-05 14:15:00
8:35 AM,21.2,17.6,86,30.37,3.0,NE,12.7,-,N/A,Snow,Light Snow,50,2014-03-05 14:35:00
8:55 AM,21.2,19.4,93,30.37,2.5,NE,12.7,-,N/A,Snow,Light Snow,50,2014-03-05 14:55:00
9:15 AM,21.2,19.4,93,30.37,5.0,NE,10.4,-,N/A,,Overcast,50,2014-03-05 15:15:00
9:35 AM,23.0,19.4,86,30.37,7.0,ENE,12.7,-,N/A,,Scattered Clouds,60,2014-03-05 15:35:00
9:55 AM,23.0,19.4,86,30.37,10.0,NE,11.5,-,N/A,,Scattered Clouds,50,2014-03-05 15:55:00
10:15 AM,23.0,19.4,86,30.37,10.0,NE,15.0,-,N/A,,Scattered Clouds,50,2014-03-05 16:15:00
10:35 AM,23.0,19.4,86,30.37,7.0,ENE,13.8,-,N/A,,Mostly Cloudy,60,2014-03-05 16:35:00
10:55 AM,23.0,19.4,86,30.37,7.0,ENE,15.0,-,N/A,,Mostly Cloudy,60,2014-03-05 16:55:00
11:15 AM,23.0,19.4,86,30.37,3.0,ENE,13.8,-,N/A,,Overcast,60,2014-03-05 17:15:00
11:35 AM,23.0,19.4,86,30.38,2.0,ENE,12.7,-,N/A,Snow,Light Snow,60,2014-03-05 17:35:00
11:55 AM,23.0,19.4,86,30.37,1.0,NE,11.5,-,N/A,Snow,Light Snow,50,2014-03-05 17:55:00
12:15 PM,23.0,19.4,86,30.37,1.5,ENE,12.7,-,N/A,Snow,Light Snow,60,2014-03-05 18:15:00
12:35 PM,23.0,19.4,86,30.36,1.5,NE,12.7,-,N/A,Snow,Light Snow,50,2014-03-05 18:35:00
12:55 PM,23.0,19.4,86,30.36,3.0,ENE,12.7,-,N/A,Snow,Light Snow,60,2014-03-05 18:55:00
1:15 PM,23.0,19.4,86,30.36,2.0,ENE,12.7,-,N/A,Snow,Light Snow,60,2014-03-05 19:15:00
1:35 PM,23.0,21.2,93,30.36,1.8,ENE,11.5,-,N/A,Snow,Light Snow,60,2014-03-05 19:35:00
1:55 PM,23.0,21.2,93,30.37,1.2,NE,10.4,-,N/A,Snow,Light Snow,50,2014-03-05 19:55:00
2:15 PM,23.0,21.2,93,30.37,1.2,ENE,11.5,-,N/A,Snow,Light Snow,60,2014-03-05 20:15:00
2:35 PM,23.0,21.2,93,30.36,2.5,ENE,15.0,-,N/A,Snow,Light Snow,60,2014-03-05 20:35:00
2:55 PM,23.0,21.2,93,30.37,1.8,ENE,11.5,-,N/A,Snow,Light Snow,70,2014-03-05 20:55:00
3:15 PM,23.0,21.2,93,30.37,1.8,ENE,13.8,-,N/A,Snow,Light Snow,60,2014-03-05 21:15:00
3:35 PM,23.0,21.2,93,30.37,1.2,ENE,9.2,-,N/A,Snow,Light Snow,60,2014-03-05 21:35:00
3:55 PM,23.0,21.2,93,30.38,1.2,NE,9.2,-,N/A,Snow,Light Snow,50,2014-03-05 21:55:00
4:15 PM,23.0,21.2,93,30.38,2.0,ENE,12.7,-,N/A,Snow,Light Snow,60,2014-03-05 22:15:00
4:35 PM,23.0,21.2,93,30.38,2.5,NE,10.4,-,N/A,Snow,Light Snow,50,2014-03-05 22:35:00
4:55 PM,23.0,21.2,93,30.38,2.5,ENE,12.7,-,N/A,Snow,Light Snow,60,2014-03-05 22:55:00
5:15 PM,23.0,21.2,93,30.38,2.5,ENE,10.4,-,N/A,Snow,Light Snow,60,2014-03-05 23:15:00
5:35 PM,23.0,21.2,93,30.39,7.0,ENE,16.1,-,N/A,,Mostly Cloudy,70,2014-03-05 23:35:00
5:55 PM,23.0,19.4,86,30.39,10.0,ENE,16.1,-,N/A,,Mostly Cloudy,70,2014-03-05 23:55:00
6:15 PM,23.0,19.4,86,30.39,10.0,ENE,15.0,-,N/A,,Overcast,70,2014-03-06 00:15:00
6:35 PM,23.0,19.4,86,30.39,10.0,ENE,15.0,-,N/A,,Overcast,70,2014-03-06 00:35:00
6:55 PM,23.0,19.4,86,30.39,10.0,ENE,11.5,-,N/A,,Overcast,70,2014-03-06 00:55:00
7:15 PM,23.0,19.4,86,30.40,10.0,ENE,10.4,-,N/A,,Overcast,70,2014-03-06 01:15:00
7:35 PM,23.0,19.4,86,30.39,10.0,ENE,10.4,-,N/A,,Mostly Cloudy,70,2014-03-06 01:35:00
7:55 PM,23.0,19.4,86,30.40,10.0,East,9.2,-,N/A,,Clear,80,2014-03-06 01:55:00
8:15 PM,21.2,19.4,93,30.41,10.0,East,5.8,-,N/A,,Clear,80,2014-03-06 02:15:00
8:35 PM,21.2,19.4,93,30.41,10.0,ENE,6.9,-,N/A,,Mostly Cloudy,60,2014-03-06 02:35:00
8:55 PM,21.2,17.6,86,30.40,10.0,ENE,6.9,-,N/A,,Scattered Clouds,60,2014-03-06 02:55:00
9:15 PM,21.2,17.6,86,30.40,10.0,ENE,9.2,-,N/A,,Mostly Cloudy,70,2014-03-06 03:15:00
9:35 PM,21.2,17.6,86,30.40,10.0,East,9.2,-,N/A,,Mostly Cloudy,80,2014-03-06 03:35:00
9:55 PM,21.2,17.6,86,30.41,10.0,East,12.7,-,N/A,,Mostly Cloudy,80,2014-03-06 03:55:00
10:15 PM,21.2,15.8,80,30.41,10.0,ENE,16.1,-,N/A,,Mostly Cloudy,70,2014-03-06 04:15:00
10:35 PM,21.2,14.0,74,30.40,10.0,East,16.1,-,N/A,,Scattered Clouds,80,2014-03-06 04:35:00
10:55 PM,21.2,14.0,74,30.40,10.0,ENE,17.3,-,N/A,,Clear,70,2014-03-06 04:55:00
11:15 PM,21.2,14.0,74,30.39,10.0,ENE,16.1,-,N/A,,Clear,70,2014-03-06 05:15:00
11:35 PM,21.2,14.0,74,30.40,10.0,East,15.0,20.7,N/A,,Clear,80,2014-03-06 05:35:00
11:55 PM,21.2,14.0,74,30.39,10.0,East,13.8,-,N/A,,Clear,80,2014-03-06 05:55:00